Time,TemperatureF,DewpointF,PressureIn,WindDirection,WindDirectionDegrees,WindSpeedMPH,WindSpeedGustMPH,Humidity,HourlyPrecipIn,Conditions,Clouds,dailyrainin,SoftwareType,DateUTC
2017-08-23 00:09:00,53.0,51.0,30.13,West,265,0.0,0.0,91,0.00,,,0.00,weatherlink.com 1.10,2017-08-23 05:09:00,
2017-08-23 00:24:00,52.7,50.0,30.14,West,265,1.0,2.0,91,0.00,,,0.00,weatherlink.com 1.10,2017-08-23 05:24:00,
2017-08-23 00:39:00,52.7,50.0,30.14,West,265,0.0,3.0,91,0.00,,,0.00,weatherlink.com 1.10,2017-08-23 05:39:00,
2017-08-23 00:54:00,52.8,50.0,30.14,West,265,0.0,4.0,91,0.00,,,0.00,weatherlink.com 1.10,2017-08-23 05:54:00,
2017-08-23 01:09:00,53.0,51.0,30.14,West,265,0.0,3.0,91,0.00,,,0.00,weatherlink.com 1.10,2017-08-23 06:09:00,
2017-08-23 01:24:00,52.8,50.0,30.14,West,265,0.0,3.0,91,0.00,,,0.00,weatherlink.com 1.10,2017-08-23 06:24:00,
2017-08-23 01:39:00,52.6,50.0,30.13,West,265,0.0,1.0,91,0.00,,,0.00,weatherlink.com 1.10,2017-08-23 06:39:00,
2017-08-23 01:54:00,52.2,49.0,30.13,West,265,0.0,2.0,90,0.00,,,0.00,weatherlink.com 1.10,2017-08-23 06:54:00,
2017-08-23 02:09:00,52.1,50.0,30.14,West,265,2.0,4.0,91,0.00,,,0.00,weatherlink.com 1.10,2017-08-23 07:09:00,
2017-08-23 02:24:00,52.3,50.0,30.13,West,265,2.0,4.0,92,0.00,,,0.00,weatherlink.com 1.10,2017-08-23 07:24:00,
2017-08-23 02:39:00,52.8,50.0,30.14,West,265,4.0,4.0,91,0.00,,,0.00,weatherlink.com 1.10,2017-08-23 07:39:00,
2017-08-23 02:54:00,52.8,50.0,30.14,West,265,1.0,4.0,90,0.00,,,0.00,weatherlink.com 1.10,2017-08-23 07:54:00,
2017-08-23 03:09:00,52.7,50.0,30.14,West,265,1.0,2.0,90,0.00,,,0.00,weatherlink.com 1.10,2017-08-23 08:09:00,
2017-08-23 03:25:00,52.5,50.0,30.14,West,265,0.0,3.0,90,0.00,,,0.00,weatherlink.com 1.10,2017-08-23 08:25:00,
2017-08-23 03:40:00,52.3,50.0,30.14,West,265,0.0,2.0,91,0.00,,,0.00,weatherlink.com 1.10,2017-08-23 08:40:00,
2017-08-23 03:55:00,52.3,50.0,30.14,West,265,1.0,6.0,91,0.00,,,0.00,weatherlink.com 1.10,2017-08-23 08:55:00,
2017-08-23 04:10:00,52.1,50.0,30.14,West,265,0.0,3.0,91,0.00,,,0.00,weatherlink.com 1.10,2017-08-23 09:10:00,
2017-08-23 04:24:00,51.7,49.0,30.14,West,265,0.0,2.0,91,0.00,,,0.00,weatherlink.com 1.10,2017-08-23 09:24:00,
2017-08-23 04:39:00,51.3,49.0,30.14,West,265,0.0,1.0,91,0.00,,,0.00,weatherlink.com 1.10,2017-08-23 09:39:00,
2017-08-23 04:54:00,50.9,49.0,30.14,West,265,0.0,1.0,92,0.00,,,0.00,weatherlink.com 1.10,2017-08-23 09:54:00,
2017-08-23 05:10:00,50.6,48.0,30.14,West,265,0.0,0.0,92,0.00,,,0.00,weatherlink.com 1.10,2017-08-23 10:10:00,
2017-08-23 05:25:00,50.1,48.0,30.14,West,265,0.0,0.0,93,0.00,,,0.00,weatherlink.com 1.10,2017-08-23 10:25:00,
2017-08-23 05:40:00,50.2,49.0,30.14,West,265,0.0,4.0,94,0.00,,,0.00,weatherlink.com 1.10,2017-08-23 10:40:00,
2017-08-23 05:55:00,50.4,49.0,30.14,West,265,1.0,4.0,93,0.00,,,0.00,weatherlink.com 1.10,2017-08-23 10:55:00,
2017-08-23 06:10:00,50.2,48.0,30.15,West,265,0.0,3.0,93,0.00,,,0.00,weatherlink.com 1.10,2017-08-23 11:10:00,
2017-08-23 06:25:00,49.8,48.0,30.15,West,265,0.0,1.0,93,0.00,,,0.00,weatherlink.com 1.10,2017-08-23 11:25:00,
2017-08-23 06:40:00,49.9,48.0,30.16,West,265,0.0,1.0,93,0.00,,,0.00,weatherlink.com 1.10,2017-08-23 11:40:00,
2017-08-23 06:55:00,49.7,48.0,30.16,West,265,0.0,1.0,93,0.00,,,0.00,weatherlink.com 1.10,2017-08-23 11:55:00,
2017-08-23 07:10:00,49.9,48.0,30.16,West,265,0.0,0.0,93,0.00,,,0.00,weatherlink.com 1.10,2017-08-23 12:10:00,
2017-08-23 07:25:00,50.9,49.0,30.16,West,265,0.0,0.0,94,0.00,,,0.00,weatherlink.com 1.10,2017-08-23 12:25:00,
2017-08-23 07:40:00,52.3,50.0,30.16,West,265,0.0,2.0,93,0.00,,,0.00,weatherlink.com 1.10,2017-08-23 12:40:00,
2017-08-23 07:55:00,53.7,51.0,30.16,West,265,0.0,1.0,91,0.00,,,0.00,weatherlink.com 1.10,2017-08-23 12:55:00,
2017-08-23 08:10:00,55.1,52.0,30.16,West,265,1.0,3.0,89,0.00,,,0.00,weatherlink.com 1.10,2017-08-23 13:10:00,
2017-08-23 08:25:00,56.6,53.0,30.16,West,265,0.0,3.0,88,0.00,,,0.00,weatherlink.com 1.10,2017-08-23 13:25:00,
2017-08-23 08:40:00,58.5,54.0,30.16,West,268,1.0,7.0,86,0.00,,,0.00,weatherlink.com 1.10,2017-08-23 13:40:00,
2017-08-23 08:55:00,60.2,55.0,30.16,West,261,3.0,7.0,82,0.00,,,0.00,weatherlink.com 1.10,2017-08-23 13:55:00,
2017-08-23 09:10:00,61.4,55.0,30.16,WSW,238,6.0,8.0,80,0.00,,,0.00,weatherlink.com 1.10,2017-08-23 14:10:00,
2017-08-23 09:25:00,62.3,55.0,30.16,West,274,6.0,10.0,76,0.00,,,0.00,weatherlink.com 1.10,2017-08-23 14:25:00,
2017-08-23 09:40:00,63.1,55.0,30.17,WSW,256,4.0,9.0,75,0.00,,,0.00,weatherlink.com 1.10,2017-08-23 14:40:00,
2017-08-23 09:55:00,63.9,56.0,30.16,West,266,3.0,7.0,75,0.00,,,0.00,weatherlink.com 1.10,2017-08-23 14:55:00,
2017-08-23 10:10:00,64.6,56.0,30.16,West,269,3.0,7.0,73,0.00,,,0.00,weatherlink.com 1.10,2017-08-23 15:10:00,
2017-08-23 10:25:00,65.8,56.0,30.16,West,275,6.0,10.0,70,0.00,,,0.00,weatherlink.com 1.10,2017-08-23 15:25:00,
2017-08-23 10:40:00,66.3,56.0,30.16,West,263,4.0,9.0,69,0.00,,,0.00,weatherlink.com 1.10,2017-08-23 15:40:00,
2017-08-23 10:55:00,67.0,56.0,30.16,West,271,2.0,9.0,67,0.00,,,0.00,weatherlink.com 1.10,2017-08-23 15:55:00,
2017-08-23 11:10:00,67.9,56.0,30.16,West,275,6.0,9.0,67,0.00,,,0.00,weatherlink.com 1.10,2017-08-23 16:10:00,
2017-08-23 11:26:00,68.9,57.0,30.16,WSW,258,0.0,8.0,67,0.00,,,0.00,weatherlink.com 1.10,2017-08-23 16:26:00,
2017-08-23 11:41:00,69.1,56.0,30.16,WNW,284,3.0,10.0,64,0.00,,,0.00,weatherlink.com 1.10,2017-08-23 16:41:00,
2017-08-23 11:56:00,69.8,55.0,30.16,West,263,4.0,10.0,60,0.00,,,0.00,weatherlink.com 1.10,2017-08-23 16:56:00,
2017-08-23 12:11:00,70.2,55.0,30.15,WNW,288,5.0,10.0,59,0.00,,,0.00,weatherlink.com 1.10,2017-08-23 17:11:00,
2017-08-23 12:26:00,70.6,54.0,30.15,West,261,6.0,10.0,56,0.00,,,0.00,weatherlink.com 1.10,2017-08-23 17:26:00,
2017-08-23 12:41:00,70.9,52.0,30.15,West,261,8.0,11.0,51,0.00,,,0.00,weatherlink.com 1.10,2017-08-23 17:41:00,
2017-08-23 12:56:00,71.3,55.0,30.15,West,267,4.0,11.0,56,0.00,,,0.00,weatherlink.com 1.10,2017-08-23 17:56:00,
2017-08-23 13:11:00,71.5,54.0,30.14,West,267,6.0,7.0,55,0.00,,,0.00,weatherlink.com 1.10,2017-08-23 18:11:00,